Alma, MI

5:38 AM EDT on September 27, 2016 (GMT -0400)
Gratiot Community

Weather History for KAMN - March, 2014

Change the Weather History Date:

Wednesday, March 5, 2014

  Actual Average Record
Temperature  
Mean Temperature 12 °F -  
Max Temperature 19 °F 39 °F 59 °F (2004)
Min Temperature 4 °F 21 °F -3 °F (2015)
Degree Days  
Heating Degree Days 54    
Moisture  
Dew Point 8 °F    
Average Humidity 80    
Maximum Humidity 95    
Minimum Humidity 61    
Precipitation  
Precipitation 0.00 in - - ()
Sea Level Pressure  
Sea Level Pressure 30.43 in    
Wind  
Wind Speed 6 mph (NNE)    
Max Wind Speed 14 mph    
Max Gust Speed -    
Visibility 9 miles    
Events Snow    
Averages and records for this station are not official NWS values.
T = Trace of Precipitation, MM = Missing Value Source: NWS Daily Summary

Daily Weather History Graph

Daily Weather History Graph

Search for Another Location

Airport or City:

Trip Planner

Search our weather history database for the weather conditions in past years. The results will help you decide how hot, cold, wet, or windy it might be!

Date:

Astronomy

Mar. 05, 2014 Rise Set
Actual Time 7:08 AM EST 6:32 PM EST
Civil Twilight 6:39 AM EST 7:01 PM EST
Nautical Twilight 6:06 AM EST 7:34 PM EST
Astronomical Twilight 5:33 AM EST 8:07 PM EST
Moon 9:24 AM EST (3/5) 11:49 PM EST (3/5)
Length of Visible Light 12h 21m
Length of Day
11h 24m
Waxing Crescent, 23% of the Moon is Illuminated
Mar 5
Waxing Crescent
Mar 8
First Quarter
Mar 16
Full
Mar 23
Last Quarter
Mar 30
New

Hourly Weather History & Observations

Time (EST) Temp. Windchill Dew Point Humidity Pressure Visibility Wind Dir Wind Speed Gust Speed Precip Events Conditions
12:13 AM 19.0 °F - 13.1 °F 78% 30.26 in 5.0 mi Calm Calm - N/A Snow Light Snow
12:33 AM 18.5 °F - 13.1 °F 79% 30.25 in 4.0 mi Calm Calm - N/A Snow Light Snow
12:50 AM 17.4 °F 12.1 °F 12.2 °F 80% 30.26 in 5.0 mi West 3.5 mph - N/A Snow Light Snow
1:10 AM 16.5 °F 8.1 °F 12.7 °F 85% 30.27 in 5.0 mi WNW 5.8 mph - N/A Snow Light Snow
1:30 AM 16.3 °F 9.2 °F 13.5 °F 88% 30.27 in 7.0 mi NW 4.6 mph - N/A Snow Light Snow
1:51 AM 17.4 °F 10.4 °F 14.0 °F 86% 30.27 in 7.0 mi NNW 4.6 mph - N/A Snow Light Snow
2:11 AM 16.5 °F 6.9 °F 13.6 °F 88% 30.27 in 7.0 mi NNW 6.9 mph - N/A Snow Light Snow
2:31 AM 14.9 °F 6.1 °F 12.7 °F 91% 30.28 in 10.0 mi NNW 5.8 mph - N/A Snow Light Snow
2:51 AM 15.3 °F 5.4 °F 13.1 °F 91% 30.27 in 10.0 mi North 6.9 mph - N/A   Mostly Cloudy
3:11 AM 15.4 °F 5.6 °F 12.0 °F 86% 30.27 in 10.0 mi North 6.9 mph - N/A   Overcast
3:31 AM 14.9 °F 4.0 °F 11.3 °F 86% 30.27 in 10.0 mi North 8.1 mph - N/A   Scattered Clouds
3:51 AM 14.0 °F 2.0 °F 10.4 °F 86% 30.28 in 10.0 mi North 9.2 mph - N/A   Clear
4:14 AM 12.9 °F 0.7 °F 9.1 °F 85% 30.30 in 10.0 mi NNW 9.2 mph - N/A   Clear
4:34 AM 12.2 °F 1.7 °F 8.4 °F 85% 30.31 in 10.0 mi NNW 6.9 mph - N/A   Mostly Cloudy
4:54 AM 11.3 °F -0.4 °F 7.7 °F 85% 30.32 in 10.0 mi NNW 8.1 mph - N/A   Overcast
5:14 AM 10.6 °F -1.3 °F 7.3 °F 87% 30.32 in 10.0 mi NNW 8.1 mph - N/A   Scattered Clouds
5:34 AM 11.3 °F 1.9 °F 7.7 °F 85% 30.34 in 10.0 mi NNW 5.8 mph - N/A   Mostly Cloudy
5:54 AM 11.7 °F 1.1 °F 8.1 °F 85% 30.34 in 10.0 mi North 6.9 mph - N/A   Overcast
6:14 AM 11.3 °F 1.9 °F 7.7 °F 85% 30.35 in 10.0 mi North 5.8 mph - N/A   Scattered Clouds
6:35 AM 10.9 °F 1.4 °F 7.5 °F 86% 30.35 in 10.0 mi North 5.8 mph - N/A   Clear
6:55 AM 10.4 °F 0.8 °F 7.2 °F 87% 30.36 in 10.0 mi North 5.8 mph - N/A   Clear
7:15 AM 10.0 °F 0.4 °F 6.8 °F 87% 30.36 in 10.0 mi North 5.8 mph - N/A   Clear
7:35 AM 10.2 °F -0.6 °F 7.0 °F 87% 30.37 in 10.0 mi North 6.9 mph - N/A   Clear
7:55 AM 10.4 °F -0.4 °F 7.3 °F 87% 30.38 in 10.0 mi North 6.9 mph - N/A   Clear
8:12 AM 10.6 °F -1.3 °F 7.5 °F 87% 30.39 in 10.0 mi North 8.1 mph - N/A   Clear
8:32 AM 11.3 °F -2.2 °F 7.7 °F 85% 30.40 in 10.0 mi North 10.4 mph - N/A   Clear
8:53 AM 11.7 °F 1.1 °F 7.7 °F 84% 30.41 in 10.0 mi North 6.9 mph - N/A   Clear
9:13 AM 12.2 °F 1.7 °F 7.9 °F 83% 30.43 in 10.0 mi North 6.9 mph - N/A   Clear
9:33 AM 12.7 °F 1.4 °F 7.9 °F 81% 30.43 in 10.0 mi North 8.1 mph - N/A   Clear
9:53 AM 13.5 °F 4.4 °F 7.9 °F 78% 30.43 in 10.0 mi NNE 5.8 mph - N/A   Clear
10:13 AM 14.5 °F 2.7 °F 8.2 °F 76% 30.43 in 10.0 mi NNE 9.2 mph - N/A   Clear
10:33 AM 15.1 °F 5.2 °F 7.9 °F 73% 30.43 in 10.0 mi North 6.9 mph - N/A   Clear
10:53 AM 15.6 °F 4.9 °F 7.7 °F 71% 30.44 in 10.0 mi North 8.1 mph - N/A   Clear
11:13 AM 16.0 °F 8.8 °F 7.7 °F 70% 30.45 in 10.0 mi NNE 4.6 mph - N/A   Clear
11:34 AM 16.9 °F 8.5 °F 7.9 °F 68% 30.46 in 10.0 mi ENE 5.8 mph - N/A   Clear
11:49 AM 17.2 °F 7.8 °F 7.5 °F 66% 30.46 in 10.0 mi NE 6.9 mph - N/A   Clear
12:11 PM 17.6 °F 9.3 °F 7.7 °F 65% 30.46 in 10.0 mi NE 5.8 mph - N/A   Clear
12:31 PM 18.1 °F 10.0 °F 8.4 °F 66% 30.47 in 10.0 mi NE 5.8 mph - N/A   Clear
12:51 PM 18.5 °F 9.3 °F 8.4 °F 65% 30.47 in 10.0 mi East 6.9 mph - N/A   Clear
1:11 PM 18.3 °F 9.1 °F 9.1 °F 67% 30.47 in 10.0 mi East 6.9 mph - N/A   Clear
1:31 PM 18.5 °F 9.3 °F 9.0 °F 66% 30.47 in 10.0 mi ENE 6.9 mph - N/A   Clear
1:51 PM 18.9 °F 8.0 °F 8.2 °F 63% 30.47 in 10.0 mi ENE 9.2 mph - N/A   Clear
2:14 PM 18.3 °F 6.6 °F 7.3 °F 62% 30.47 in 1.2 mi East 10.4 mph - N/A Snow Light Snow
2:34 PM 18.1 °F 5.6 °F 6.8 °F 61% 30.47 in 4.0 mi ENE 11.5 mph - N/A Snow Light Snow
2:54 PM 18.0 °F 5.4 °F 7.5 °F 64% 30.48 in 4.0 mi ENE 11.5 mph - N/A Snow Light Snow
3:14 PM 17.8 °F 4.0 °F 6.8 °F 62% 30.48 in 10.0 mi ENE 13.8 mph - N/A   Clear
3:34 PM 17.6 °F 5.7 °F 6.4 °F 62% 30.49 in 10.0 mi ENE 10.4 mph - N/A   Clear
3:54 PM 17.6 °F 5.7 °F 6.8 °F 63% 30.49 in 10.0 mi ENE 10.4 mph - N/A   Clear
4:14 PM 17.6 °F 5.0 °F 6.8 °F 63% 30.49 in 10.0 mi ENE 11.5 mph - N/A   Clear
4:34 PM 17.4 °F 4.7 °F 6.1 °F 61% 30.50 in 10.0 mi ENE 11.5 mph - N/A   Clear
4:55 PM 17.2 °F 4.5 °F 6.8 °F 64% 30.50 in 10.0 mi NE 11.5 mph - N/A   Clear
5:15 PM 17.2 °F 3.9 °F 7.7 °F 66% 30.50 in 7.0 mi ENE 12.7 mph - N/A   Clear
5:32 PM 16.7 °F 3.8 °F 7.7 °F 68% 30.51 in 10.0 mi NE 11.5 mph - N/A   Clear
5:52 PM 16.5 °F 5.1 °F 9.0 °F 72% 30.51 in 10.0 mi NE 9.2 mph - N/A   Clear
6:12 PM 15.6 °F 4.9 °F 10.4 °F 80% 30.51 in 10.0 mi NE 8.1 mph - N/A   Clear
6:32 PM 13.3 °F 3.0 °F 7.5 °F 78% 30.51 in 10.0 mi ENE 6.9 mph - N/A   Clear
6:52 PM 9.1 °F 2.6 °F 4.8 °F 83% 30.52 in 10.0 mi ENE 3.5 mph - N/A   Clear
7:13 PM 7.7 °F -0.9 °F 4.1 °F 85% 30.52 in 10.0 mi NE 4.6 mph - N/A   Clear
7:33 PM 7.0 °F -4.5 °F 3.9 °F 87% 30.53 in 10.0 mi NE 6.9 mph - N/A   Clear
7:53 PM 7.5 °F 0.8 °F 4.8 °F 89% 30.54 in 10.0 mi NE 3.5 mph - N/A   Clear
8:15 PM 7.7 °F -0.9 °F 5.2 °F 89% 30.54 in 10.0 mi NE 4.6 mph - N/A   Clear
8:35 PM 6.4 °F -3.9 °F 3.7 °F 89% 30.53 in 10.0 mi ENE 5.8 mph - N/A   Clear
8:55 PM 5.4 °F -5.2 °F 3.2 °F 91% 30.53 in 10.0 mi ENE 5.8 mph - N/A   Clear
9:16 PM 5.4 °F -5.2 °F 2.5 °F 88% 30.53 in 10.0 mi ENE 5.8 mph - N/A   Clear
9:31 PM 6.1 °F -4.3 °F 3.7 °F 90% 30.54 in 10.0 mi ENE 5.8 mph - N/A   Clear
9:51 PM 5.9 °F -3.0 °F 4.1 °F 92% 30.53 in 10.0 mi ENE 4.6 mph - N/A   Clear
10:11 PM 6.6 °F -0.3 °F 4.6 °F 92% 30.53 in 10.0 mi NE 3.5 mph - N/A   Clear
10:31 PM 4.6 °F -4.5 °F 2.7 °F 91% 30.53 in 10.0 mi NE 4.6 mph - N/A   Clear
10:51 PM 5.0 °F -4.1 °F 3.2 °F 92% 30.53 in 10.0 mi ENE 4.6 mph - N/A   Clear
11:11 PM 6.8 °F -4.8 °F 5.5 °F 95% 30.53 in 10.0 mi ENE 6.9 mph - N/A   Clear
11:34 PM 8.6 °F 0.1 °F 6.8 °F 92% 30.52 in 10.0 mi NE 4.6 mph - N/A   Clear
11:53 PM 7.7 °F -0.9 °F 5.9 °F 92% 30.52 in 10.0 mi NE 4.6 mph - N/A   Clear